| time (UTC) | temp F | wind direction | speed MPH | gust MPH | rain 1hr in | rain 24hr in | rain mn in | humidity % | barometer mb |
| 20260507092600 | 68 | 352 | 3.0 | 7.0 | 0.00 | 0.00 | 0.00 | 58 | 1016.9 |
| 20260507091530 | 68 | 19 | 4.0 | 8.0 | 0.00 | 0.00 | 0.00 | 59 | 1016.9 |
| 20260507090524 | 68 | 20 | 3.0 | 9.0 | 0.00 | 0.00 | 0.00 | 60 | 1016.9 |
| 20260507085547 | 67 | 41 | 3.0 | 8.0 | 0.00 | 0.00 | 0.00 | 61 | 1016.9 |
| 20260507084558 | 67 | 10 | 4.0 | 10.0 | 0.00 | 0.00 | 0.00 | 64 | 1016.9 |
| 20260507083552 | 67 | 22 | 5.0 | 9.0 | 0.00 | 0.00 | 0.00 | 66 | 1016.8 |
| 20260507082522 | 67 | 20 | 4.0 | 9.0 | 0.00 | 0.00 | 0.00 | 68 | 1016.6 |
| 20260507081546 | 69 | 36 | 3.0 | 8.0 | 0.00 | 0.00 | 0.00 | 56 | 1016.4 |
| 20260507080539 | 71 | 157 | 1.0 | 3.0 | 0.00 | 0.00 | 0.00 | 53 | 1016.3 |
| 20260507075552 | 70 | 179 | 2.0 | 4.0 | 0.00 | 0.00 | 0.00 | 56 | 1016.3 |
| 20260507074523 | 70 | 203 | 1.0 | 4.0 | 0.00 | 0.00 | 0.00 | 56 | 1016.3 |
| 20260507073547 | 69 | 238 | 2.0 | 4.0 | 0.00 | 0.00 | 0.00 | 57 | 1016.3 |
| 20260507071531 | 69 | 50 | 1.0 | 4.0 | 0.00 | 0.01 | 0.00 | 61 | 1016.4 |
| 20260507070524 | 69 | 113 | 1.0 | 2.0 | 0.00 | 0.01 | 0.00 | 62 | 1016.4 |
| 20260507065531 | 68 | 126 | 1.0 | 3.0 | 0.00 | 0.01 | 0.00 | 65 | 1016.3 |
| 20260507064523 | 67 | 86 | 1.0 | 2.0 | 0.00 | 0.01 | 0.00 | 69 | 1016.3 |
| 20260507063546 | 65 | 106 | 1.0 | 3.0 | 0.00 | 0.01 | 0.00 | 73 | 1016.4 |
| 20260507062538 | 63 | 89 | 1.0 | 3.0 | 0.00 | 0.01 | 0.00 | 77 | 1016.4 |
| 20260507061532 | 64 | 51 | 2.0 | 3.0 | 0.00 | 0.01 | 0.00 | 77 | 1016.4 |
| 20260507060523 | 64 | 132 | 0.0 | 1.0 | 0.00 | 0.01 | 0.00 | 77 | 1016.3 |
| 20260507055546 | 63 | 97 | 0.0 | 3.0 | 0.00 | 0.01 | 0.00 | 81 | 1016.3 |
| 20260507054538 | 61 | 122 | 1.0 | 2.0 | 0.00 | 0.01 | 0.00 | 84 | 1016.1 |
| 20260507053530 | 59 | 186 | 2.0 | 4.0 | 0.00 | 0.01 | 0.00 | 88 | 1016.0 |
| 20260507052522 | 59 | 181 | 0.0 | 2.0 | 0.00 | 0.01 | 0.00 | 88 | 1016.0 |
| 20260507051606 | 59 | 0.0 | 0.0 | 0.00 | 0.01 | 0.00 | 88 | 1015.9 | |
| 20260507050539 | 59 | 0.0 | 0.0 | 0.00 | 0.01 | 0.00 | 88 | 1016.0 | |
| 20260507045517 | 60 | 91 | 0.0 | 1.0 | 0.00 | 0.01 | 0.00 | 88 | 1015.6 |
| 20260507044524 | 60 | 187 | 1.0 | 1.0 | 0.00 | 0.02 | 0.00 | 88 | 1015.5 |
| 20260507043606 | 60 | 125 | 0.0 | 1.0 | 0.00 | 0.03 | 0.00 | 88 | 1015.3 |
| 20260507042538 | 60 | 130 | 1.0 | 3.0 | 0.00 | 0.04 | 0.00 | 88 | 1015.3 |
| 20260507041547 | 59 | 130 | 1.0 | 3.0 | 0.00 | 0.05 | 0.00 | 88 | 1015.3 |
| 20260507040600 | 59 | 135 | 1.0 | 3.0 | 0.00 | 0.05 | 0.00 | 88 | 1015.1 |
| 20260507035530 | 59 | 113 | 1.0 | 2.0 | 0.00 | 0.05 | 0.00 | 87 | 1015.1 |
| 20260507034522 | 59 | 118 | 1.0 | 3.0 | 0.00 | 0.05 | 0.00 | 86 | 1015.0 |
| 20260507033547 | 59 | 127 | 1.0 | 4.0 | 0.00 | 0.05 | 0.00 | 89 | 1015.0 |
| 20260507032538 | 59 | 115 | 1.0 | 2.0 | 0.00 | 0.05 | 0.00 | 89 | 1015.1 |
| 20260507031531 | 59 | 117 | 1.0 | 3.0 | 0.00 | 0.05 | 0.00 | 88 | 1015.1 |
| 20260507030522 | 59 | 135 | 1.0 | 3.0 | 0.00 | 0.05 | 0.00 | 88 | 1015.1 |
| 20260507025546 | 59 | 0.0 | 0.0 | 0.00 | 0.05 | 0.00 | 87 | 1015.0 | |
| 20260507024539 | 60 | 0.0 | 0.0 | 0.00 | 0.05 | 0.00 | 86 | 1015.0 | |
| 20260507023530 | 60 | 0.0 | 0.0 | 0.00 | 0.05 | 0.00 | 86 | 1014.9 | |
| 20260507022524 | 60 | 0.0 | 0.0 | 0.00 | 0.05 | 0.00 | 86 | 1014.9 | |
| 20260507021530 | 60 | 114 | 0.0 | 1.0 | 0.00 | 0.05 | 0.00 | 85 | 1015.0 |
| 20260507020538 | 61 | 104 | 0.0 | 1.0 | 0.00 | 0.05 | 0.00 | 85 | 1015.0 |
| 20260507015551 | 61 | 120 | 0.0 | 1.0 | 0.00 | 0.05 | 0.00 | 85 | 1015.0 |
| 20260507014542 | 61 | 0.0 | 0.0 | 0.00 | 0.05 | 0.00 | 84 | 1014.9 | |
| 20260507013547 | 61 | 108 | 0.0 | 1.0 | 0.00 | 0.05 | 0.00 | 84 | 1014.9 |
| 20260507012522 | 61 | 134 | 1.0 | 2.0 | 0.00 | 0.05 | 0.00 | 83 | 1015.0 |
| 20260507011547 | 62 | 0.0 | 0.0 | 0.00 | 0.05 | 0.00 | 82 | 1015.0 | |
| 20260507010539 | 62 | 89 | 1.0 | 3.0 | 0.00 | 0.05 | 0.00 | 82 | 1015.0 |
| 20260507005531 | 62 | 98 | 1.0 | 2.0 | 0.00 | 0.05 | 0.00 | 79 | 1015.0 |
| 20260507004523 | 63 | 0.0 | 0.0 | 0.00 | 0.05 | 0.00 | 78 | 1015.0 | |
| 20260507003548 | 63 | 103 | 0.0 | 1.0 | 0.00 | 0.05 | 0.00 | 77 | 1014.9 |
| 20260507002538 | 63 | 0.0 | 1.0 | 0.00 | 0.05 | 0.00 | 77 | 1015.1 | |
| 20260507001530 | 63 | 74 | 0.0 | 2.0 | 0.00 | 0.05 | 0.00 | 77 | 1015.1 |
| 20260507000522 | 64 | 309 | 0.0 | 2.0 | 0.00 | 0.05 | 0.00 | 75 | 1015.2 |
| 20260506235547 | 64 | 194 | 1.0 | 3.0 | 0.00 | 0.05 | 0.00 | 73 | 1015.1 |
| 20260506234540 | 65 | 151 | 1.0 | 3.0 | 0.00 | 0.05 | 0.00 | 71 | 1014.9 |
| 20260506233530 | 64 | 168 | 1.0 | 2.0 | 0.00 | 0.05 | 0.00 | 72 | 1014.9 |
| 20260506232522 | 64 | 184 | 2.0 | 3.0 | 0.00 | 0.05 | 0.00 | 73 | 1014.9 |
| 20260506231607 | 64 | 160 | 1.0 | 6.0 | 0.00 | 0.05 | 0.00 | 74 | 1014.6 |
| 20260506230539 | 65 | 150 | 2.0 | 7.0 | 0.00 | 0.05 | 0.00 | 72 | 1014.8 |
| 20260506225532 | 65 | 156 | 3.0 | 8.0 | 0.00 | 0.05 | 0.00 | 72 | 1014.8 |
| 20260506224542 | 65 | 158 | 3.0 | 6.0 | 0.00 | 0.05 | 0.00 | 73 | 1014.9 |
| 20260506223546 | 64 | 175 | 4.0 | 9.0 | 0.00 | 0.05 | 0.00 | 73 | 1014.8 |
| 20260506222540 | 64 | 162 | 3.0 | 9.0 | 0.00 | 0.05 | 0.00 | 74 | 1014.9 |
| 20260506221531 | 64 | 147 | 2.0 | 7.0 | 0.00 | 0.05 | 0.00 | 74 | 1015.0 |
| 20260506220544 | 64 | 150 | 2.0 | 4.0 | 0.00 | 0.05 | 0.00 | 75 | 1014.9 |
| 20260506215532 | 63 | 150 | 2.0 | 7.0 | 0.00 | 0.05 | 0.05 | 76 | 1015.0 |
| 20260506214522 | 62 | 138 | 1.0 | 3.0 | 0.00 | 0.05 | 0.05 | 80 | 1015.0 |
| 20260506213546 | 63 | 133 | 2.0 | 4.0 | 0.00 | 0.05 | 0.05 | 81 | 1014.9 |
| 20260506212639 | 63 | 118 | 2.0 | 3.0 | 0.00 | 0.05 | 0.05 | 79 | 1015.0 |
| 20260506211530 | 63 | 115 | 1.0 | 3.0 | 0.00 | 0.07 | 0.05 | 80 | 1015.0 |
| 20260506210522 | 63 | 123 | 0.0 | 1.0 | 0.00 | 0.07 | 0.05 | 81 | 1015.0 |
| 20260506205547 | 64 | 153 | 1.0 | 1.0 | 0.00 | 0.09 | 0.05 | 79 | 1015.1 |
| 20260506204539 | 64 | 126 | 0.0 | 2.0 | 0.00 | 0.13 | 0.05 | 78 | 1015.0 |
| 20260506203530 | 64 | 129 | 1.0 | 2.0 | 0.00 | 0.16 | 0.05 | 77 | 1014.9 |
| 20260506202523 | 64 | 96 | 1.0 | 3.0 | 0.00 | 0.16 | 0.05 | 77 | 1014.9 |
| 20260506201548 | 64 | 72 | 1.0 | 3.0 | 0.00 | 0.17 | 0.05 | 77 | 1014.8 |
| 20260506200540 | 64 | 83 | 1.0 | 2.0 | 0.00 | 0.18 | 0.05 | 77 | 1014.8 |
| 20260506195530 | 64 | 93 | 1.0 | 2.0 | 0.00 | 0.19 | 0.05 | 77 | 1014.8 |
| 20260506194522 | 65 | 72 | 1.0 | 2.0 | 0.00 | 0.21 | 0.05 | 76 | 1014.7 |
| 20260506193546 | 65 | 83 | 1.0 | 3.0 | 0.00 | 0.21 | 0.05 | 76 | 1014.5 |
| 20260506192538 | 65 | 57 | 1.0 | 3.0 | 0.00 | 0.22 | 0.05 | 76 | 1014.5 |
| 20260506191531 | 65 | 51 | 1.0 | 3.0 | 0.00 | 0.22 | 0.05 | 76 | 1014.3 |
| 20260506190522 | 65 | 28 | 1.0 | 3.0 | 0.00 | 0.22 | 0.05 | 75 | 1014.1 |
| 20260506185606 | 65 | 68 | 2.0 | 4.0 | 0.00 | 0.22 | 0.05 | 74 | 1014.0 |
| 20260506184539 | 65 | 359 | 2.0 | 8.0 | 0.00 | 0.23 | 0.05 | 73 | 1014.0 |
| 20260506183530 | 66 | 331 | 3.0 | 8.0 | 0.00 | 0.25 | 0.05 | 72 | 1013.8 |
| 20260506182523 | 67 | 321 | 2.0 | 4.0 | 0.00 | 0.29 | 0.05 | 68 | 1013.5 |
| 20260506181530 | 68 | 189 | 2.0 | 3.0 | 0.00 | 0.34 | 0.05 | 66 | 1013.3 |
| 20260506180539 | 68 | 166 | 2.0 | 4.0 | 0.00 | 0.38 | 0.05 | 67 | 1013.2 |
| 20260506175531 | 69 | 151 | 1.0 | 3.0 | 0.00 | 0.42 | 0.05 | 66 | 1013.1 |
| 20260506174522 | 69 | 170 | 2.0 | 4.0 | 0.00 | 0.45 | 0.05 | 65 | 1013.1 |
| 20260506173546 | 69 | 175 | 3.0 | 7.0 | 0.00 | 0.47 | 0.05 | 64 | 1013.0 |
| 20260506172538 | 70 | 154 | 2.0 | 6.0 | 0.00 | 0.48 | 0.05 | 63 | 1012.8 |
| 20260506171550 | 70 | 166 | 3.0 | 9.0 | 0.00 | 0.49 | 0.05 | 63 | 1012.8 |
| 20260506170543 | 70 | 175 | 3.0 | 9.0 | 0.00 | 0.49 | 0.05 | 62 | 1012.7 |
| 20260506165607 | 70 | 173 | 3.0 | 7.0 | 0.00 | 0.50 | 0.05 | 61 | 1012.6 |
| 20260506164538 | 71 | 184 | 4.0 | 9.0 | 0.00 | 0.50 | 0.05 | 61 | 1012.7 |
| 20260506163532 | 71 | 182 | 4.0 | 9.0 | 0.00 | 0.50 | 0.05 | 60 | 1012.7 |
| 20260506162545 | 72 | 179 | 3.0 | 8.0 | 0.00 | 0.50 | 0.05 | 59 | 1012.8 |
| 20260506161606 | 72 | 158 | 4.0 | 8.0 | 0.00 | 0.50 | 0.05 | 58 | 1012.6 |
| 20260506160538 | 72 | 175 | 4.0 | 14.0 | 0.00 | 0.50 | 0.05 | 58 | 1012.8 |
| 20260506155531 | 72 | 171 | 4.0 | 11.0 | 0.00 | 0.50 | 0.05 | 58 | 1012.8 |
| 20260506154523 | 73 | 160 | 4.0 | 11.0 | 0.00 | 0.50 | 0.05 | 57 | 1012.7 |
| 20260506153608 | 73 | 161 | 3.0 | 8.0 | 0.00 | 0.50 | 0.05 | 56 | 1012.6 |
| 20260506152538 | 74 | 189 | 5.0 | 9.0 | 0.00 | 0.50 | 0.05 | 57 | 1012.8 |
| 20260506151532 | 74 | 180 | 4.0 | 13.0 | 0.00 | 0.50 | 0.05 | 57 | 1012.8 |
| 20260506150522 | 73 | 138 | 3.0 | 11.0 | 0.00 | 0.50 | 0.05 | 58 | 1012.7 |
| 20260506145546 | 73 | 147 | 3.0 | 10.0 | 0.00 | 0.50 | 0.05 | 58 | 1012.7 |
| 20260506144539 | 73 | 153 | 3.0 | 11.0 | 0.00 | 0.50 | 0.05 | 59 | 1012.6 |
| 20260506143530 | 72 | 176 | 3.0 | 8.0 | 0.00 | 0.50 | 0.05 | 58 | 1012.5 |
| 20260506142538 | 74 | 188 | 4.0 | 14.0 | 0.00 | 0.50 | 0.05 | 55 | 1012.5 |
| 20260506141530 | 73 | 183 | 5.0 | 11.0 | 0.00 | 0.50 | 0.05 | 56 | 1012.5 |
| 20260506140544 | 73 | 192 | 5.0 | 14.0 | 0.00 | 0.50 | 0.05 | 57 | 1012.7 |
| 20260506135546 | 73 | 177 | 6.0 | 16.0 | 0.00 | 0.50 | 0.05 | 57 | 1012.9 |
| 20260506134538 | 73 | 195 | 6.0 | 11.0 | 0.00 | 0.50 | 0.05 | 57 | 1013.1 |
| 20260506133546 | 73 | 164 | 4.0 | 13.0 | 0.00 | 0.50 | 0.05 | 56 | 1013.2 |
| 20260506132538 | 73 | 161 | 4.0 | 13.0 | 0.00 | 0.50 | 0.05 | 54 | 1013.4 |
| 20260506131530 | 73 | 181 | 4.0 | 15.0 | 0.00 | 0.50 | 0.05 | 54 | 1013.5 |
| 20260506130524 | 74 | 184 | 6.0 | 11.0 | 0.00 | 0.50 | 0.05 | 53 | 1013.6 |
| 20260506125546 | 73 | 143 | 4.0 | 10.0 | 0.00 | 0.50 | 0.05 | 54 | 1013.7 |
| 20260506124538 | 72 | 159 | 4.0 | 9.0 | 0.00 | 0.50 | 0.05 | 56 | 1013.9 |
| 20260506123530 | 72 | 182 | 5.0 | 11.0 | 0.00 | 0.50 | 0.05 | 55 | 1013.8 |
| 20260506122544 | 72 | 188 | 5.0 | 13.0 | 0.00 | 0.50 | 0.05 | 58 | 1013.7 |
| 20260506121546 | 73 | 170 | 3.0 | 9.0 | 0.00 | 0.50 | 0.05 | 57 | 1013.7 |
| 20260506120522 | 72 | 181 | 5.0 | 10.0 | 0.00 | 0.50 | 0.05 | 58 | 1013.8 |
| 20260506115549 | 73 | 187 | 4.0 | 9.0 | 0.00 | 0.50 | 0.05 | 56 | 1013.8 |
| 20260506114538 | 73 | 182 | 5.0 | 9.0 | 0.00 | 0.50 | 0.05 | 58 | 1013.8 |
| 20260506113550 | 73 | 138 | 6.0 | 17.0 | 0.00 | 0.50 | 0.05 | 58 | 1014.0 |
| 20260506112537 | 72 | 158 | 4.0 | 8.0 | 0.00 | 0.50 | 0.05 | 60 | 1014.1 |
| 20260506111531 | 71 | 163 | 4.0 | 11.0 | 0.00 | 0.50 | 0.05 | 62 | 1014.3 |
| 20260506110602 | 70 | 167 | 4.0 | 13.0 | 0.00 | 0.50 | 0.05 | 63 | 1014.4 |
| 20260506105546 | 70 | 167 | 4.0 | 13.0 | 0.00 | 0.50 | 0.05 | 64 | 1014.4 |
| 20260506104620 | 70 | 155 | 3.0 | 9.0 | 0.00 | 0.50 | 0.05 | 65 | 1014.4 |
| 20260506103546 | 69 | 179 | 5.0 | 10.0 | 0.00 | 0.50 | 0.05 | 65 | 1014.4 |
| 20260506102538 | 69 | 163 | 4.0 | 9.0 | 0.00 | 0.50 | 0.05 | 65 | 1014.5 |
| 20260506101530 | 69 | 168 | 6.0 | 15.0 | 0.00 | 0.50 | 0.05 | 65 | 1014.5 |
| 20260506100544 | 69 | 155 | 4.0 | 9.0 | 0.00 | 0.50 | 0.05 | 65 | 1014.4 |
| 20260506095607 | 70 | 152 | 4.0 | 13.0 | 0.00 | 0.50 | 0.05 | 64 | 1014.3 |
| 20260506094538 | 69 | 186 | 5.0 | 16.0 | 0.00 | 0.50 | 0.05 | 64 | 1014.6 |
| 20260506093531 | 70 | 175 | 3.0 | 8.0 | 0.00 | 0.50 | 0.05 | 63 | 1014.5 |